sat.trackr.live / text

‹ back to catalog

GHGSAT-C6

NORAD 56204 · 2023-054AC

PAYLOAD ACTIVE UNKNOWN

§ Identity

Operator
Country
CA
Launch date
2023-04-15
Launch site
AFWTR
Launch vehicle
Mass (kg)
RCS (m²)

External: N2YO · Heavens-Above · Gunter

§ Orbital elements

Epoch: 2026-05-25T04:22:00.217344Z

Period
92.77 min
Inclination
97.3067°
Eccentricity
0.0008353
Mean motion
15.52172953 rev/d
Perigee alt
404.7 km
Apogee alt
416.1 km
Semi-major
6,788.5 km
B*
2.4194e-4
RAAN
54.6819°
Arg perigee
114.4013°
Mean anomaly
245.8113°
Rev number
17,488

§ Raw data

GHGSAT-C61 56204U 23054AC  26145.18194696  .00014574  00000+0  24194-3 0  99962 56204  97.3067  54.6819 0008353 114.4013 245.8113 15.52172953174889

JSON: /api/v1/satellites/56204 · /tle

For live sub-satellite position, see the globe view (requires WebGL).

§ Visibility from observer

Set your observer location to see the next 7 days of passes ≥ 10°. The values pass through the URL so the page stays shareable.

No JS? Fill the form by hand. The geolocation button needs JavaScript.